Weather History for Auburn, CA

Change the Weather History Date:

Friday, January 11, 2013

  Actual Average Record
Temperature  
Mean Temperature 37 °F -  
Max Temperature 44 °F 52 °F 140 °F (2012)
Min Temperature 30 °F 36 °F 24 °F (1949)
Degree Days  
Heating Degree Days 28    
Moisture  
Dew Point 29 °F    
Average Humidity 80    
Maximum Humidity 93    
Minimum Humidity 53    
Precipitation  
Precipitation 0.00 in - - ()
Sea Level Pressure  
Sea Level Pressure 30.13 in    
Wind  
Wind Speed 4 mph (ESE)    
Max Wind Speed 8 mph    
Max Gust Speed -    
Visibility 10 miles    
Events      
Averages and records for this station are not official NWS values.
T = Trace of Precipitation, MM = Missing Value Source: NWS Daily Summary

Daily Weather History Graph

Daily Weather History Graph

Search for Another Location

Airport:

Trip Planner

Search our weather history database for the weather conditions in past years. The results will help you decide how hot, cold, wet, or windy it might be!

Date:

Astronomy

Jan. 11, 2013 Rise Set
Actual Time 7:22 AM PST 5:02 PM PST
Civil Twilight 6:53 AM PST 5:31 PM PST
Nautical Twilight 6:20 AM PST 6:05 PM PST
Astronomical Twilight 5:48 AM PST 6:37 PM PST
Moon 7:00 AM PST (1/11) 5:26 PM PST (1/11)
Length of Visible Light 10h 38m
Length of Day
9h 39m
New Moon, 0% of the Moon is Illuminated
Jan 11
New Moon
Jan 18
First Quarter
Jan 26
Full
Feb 3
Last Quarter
Feb 9
New

Hourly Weather History & Observations

Time (PST) Temp. Windchill Dew Point Humidity Pressure Visibility Wind Dir Wind Speed Gust Speed Precip Events Conditions
12:15 AM 32.0 °F 28.7 °F 30.2 °F 93% 30.11 in 10.0 mi East 3.5 mph - N/A   Clear
12:35 AM 32.0 °F - 30.2 °F 93% 30.11 in 10.0 mi Calm Calm - N/A   Clear
12:55 AM 32.0 °F 25.6 °F 30.2 °F 93% 30.11 in 10.0 mi East 6.9 mph - N/A   Clear
1:15 AM 32.0 °F 26.4 °F 30.2 °F 93% 30.11 in 10.0 mi ESE 5.8 mph - N/A   Clear
1:35 AM 32.0 °F 25.6 °F 30.2 °F 93% 30.11 in 10.0 mi East 6.9 mph - N/A   Clear
1:55 AM 32.0 °F 26.4 °F 30.2 °F 93% 30.11 in 10.0 mi East 5.8 mph - N/A   Clear
2:15 AM 32.0 °F 25.6 °F 30.2 °F 93% 30.12 in 10.0 mi ESE 6.9 mph - N/A   Clear
2:35 AM 32.0 °F 26.4 °F 30.2 °F 93% 30.12 in 10.0 mi ESE 5.8 mph - N/A   Clear
2:55 AM 32.0 °F 25.6 °F 30.2 °F 93% 30.12 in 10.0 mi ESE 6.9 mph - N/A   Clear
3:15 AM 32.0 °F 25.6 °F 30.2 °F 93% 30.12 in 10.0 mi East 6.9 mph - N/A   Clear
3:35 AM 32.0 °F 26.4 °F 30.2 °F 93% 30.11 in 10.0 mi East 5.8 mph - N/A   Clear
3:55 AM 32.0 °F 28.7 °F 28.4 °F 87% 30.11 in 10.0 mi ESE 3.5 mph - N/A   Clear
4:15 AM 32.0 °F 28.7 °F 28.4 °F 87% 30.11 in 10.0 mi ESE 3.5 mph - N/A   Clear
4:35 AM 32.0 °F 26.4 °F 28.4 °F 87% 30.12 in 10.0 mi ESE 5.8 mph - N/A   Clear
4:55 AM 32.0 °F 24.8 °F 28.4 °F 87% 30.12 in 10.0 mi East 8.1 mph - N/A   Clear
5:35 AM 32.0 °F 26.4 °F 28.4 °F 87% 30.14 in 10.0 mi ESE 5.8 mph - N/A   Clear
5:55 AM 32.0 °F 25.6 °F 28.4 °F 87% 30.14 in 10.0 mi East 6.9 mph - N/A   Clear
6:15 AM 32.0 °F - 28.4 °F 87% 30.15 in 10.0 mi Calm Calm - N/A   Clear
6:35 AM 32.0 °F 26.4 °F 28.4 °F 87% 30.15 in 10.0 mi East 5.8 mph - N/A   Clear
6:55 AM 32.0 °F 24.8 °F 28.4 °F 87% 30.16 in 10.0 mi East 8.1 mph - N/A   Clear
7:15 AM 32.0 °F 25.6 °F 28.4 °F 87% 30.16 in 10.0 mi East 6.9 mph - N/A   Clear
7:35 AM 32.0 °F 27.5 °F 28.4 °F 87% 30.16 in 10.0 mi ESE 4.6 mph - N/A   Clear
8:15 AM 32.0 °F 24.8 °F 28.4 °F 87% 30.18 in 10.0 mi East 8.1 mph - N/A   Clear
8:35 AM 33.8 °F 27.7 °F 30.2 °F 87% 30.18 in 10.0 mi East 6.9 mph - N/A   Clear
8:55 AM 33.8 °F 27.7 °F 30.2 °F 87% 30.18 in 10.0 mi ESE 6.9 mph - N/A   Clear
9:15 AM 35.6 °F 31.7 °F 30.2 °F 81% 30.18 in 10.0 mi SE 4.6 mph - N/A   Clear
9:35 AM 35.6 °F 29.9 °F 32.0 °F 87% 30.18 in 10.0 mi ESE 6.9 mph - N/A   Clear
9:55 AM 35.6 °F 30.7 °F 32.0 °F 87% 30.19 in 10.0 mi ESE 5.8 mph - N/A   Partly Cloudy
10:15 AM 37.4 °F 33.8 °F 32.0 °F 81% 30.19 in 10.0 mi SE 4.6 mph - N/A   Partly Cloudy
10:35 AM 39.2 °F 35.9 °F 32.0 °F 75% 30.18 in 10.0 mi SE 4.6 mph - N/A   Partly Cloudy
10:55 AM 39.2 °F 35.9 °F 32.0 °F 75% 30.18 in 10.0 mi SE 4.6 mph - N/A   Clear
11:15 AM 41.0 °F 38.0 °F 32.0 °F 70% 30.17 in 10.0 mi SSE 4.6 mph - N/A   Clear
11:35 AM 42.8 °F 41.1 °F 30.2 °F 61% 30.16 in 10.0 mi East 3.5 mph - N/A   Partly Cloudy
11:55 AM 42.8 °F - 32.0 °F 66% 30.15 in 10.0 mi Calm Calm - N/A   Scattered Clouds
12:15 PM 42.8 °F 41.1 °F 32.0 °F 66% 30.14 in 10.0 mi SW 3.5 mph - N/A   Clear
12:35 PM 42.8 °F 41.1 °F 30.2 °F 61% 30.13 in 10.0 mi SSW 3.5 mph - N/A   Clear
12:55 PM 44.6 °F 43.1 °F 30.2 °F 57% 30.12 in 10.0 mi WSW 3.5 mph - N/A   Clear
1:15 PM 44.6 °F 40.7 °F 30.2 °F 57% 30.12 in 10.0 mi WSW 6.9 mph - N/A   Clear
1:35 PM 44.6 °F 41.4 °F 30.2 °F 57% 30.11 in 10.0 mi WSW 5.8 mph - N/A   Clear
1:55 PM 44.6 °F 42.2 °F 30.2 °F 57% 30.11 in 10.0 mi West 4.6 mph - N/A   Clear
2:15 PM 44.6 °F 42.2 °F 30.2 °F 57% 30.11 in 10.0 mi West 4.6 mph - N/A   Partly Cloudy
2:35 PM 44.6 °F 42.2 °F 28.4 °F 53% 30.11 in 10.0 mi West 4.6 mph - N/A   Scattered Clouds
2:55 PM 44.6 °F 42.2 °F 28.4 °F 53% 30.11 in 10.0 mi WNW 4.6 mph - N/A   Scattered Clouds
3:15 PM 44.6 °F 43.1 °F 28.4 °F 53% 30.11 in 10.0 mi West 3.5 mph - N/A   Partly Cloudy
3:35 PM 44.6 °F 42.2 °F 28.4 °F 53% 30.10 in 10.0 mi WSW 4.6 mph - N/A   Clear
3:55 PM 44.6 °F 40.7 °F 30.2 °F 57% 30.10 in 10.0 mi West 6.9 mph - N/A   Partly Cloudy
4:15 PM 42.8 °F 39.3 °F 30.2 °F 61% 30.10 in 10.0 mi West 5.8 mph - N/A   Partly Cloudy
4:35 PM 42.8 °F 38.6 °F 30.2 °F 61% 30.10 in 10.0 mi West 6.9 mph - N/A   Partly Cloudy
4:55 PM 39.2 °F 37.0 °F 30.2 °F 70% 30.10 in 10.0 mi West 3.5 mph - N/A   Partly Cloudy
5:15 PM 39.2 °F - 28.4 °F 65% 30.10 in 10.0 mi Calm Calm - N/A   Clear
5:35 PM 37.4 °F - 28.4 °F 70% 30.10 in 10.0 mi Calm Calm - N/A   Clear
5:55 PM 35.6 °F - 28.4 °F 75% 30.10 in 10.0 mi Calm Calm - N/A   Clear
6:15 PM 32.0 °F - 28.4 °F 87% 30.10 in 10.0 mi Calm Calm - N/A   Clear
6:35 PM 33.8 °F - 30.2 °F 87% 30.11 in 10.0 mi Calm Calm - N/A   Clear
6:55 PM 33.8 °F - 30.2 °F 87% 30.11 in 10.0 mi Calm Calm - N/A   Clear
7:15 PM 32.0 °F - 30.2 °F 93% 30.11 in 10.0 mi Calm Calm - N/A   Clear
7:35 PM 32.0 °F - 28.4 °F 87% 30.11 in 10.0 mi Calm Calm - N/A   Clear
7:55 PM 32.0 °F - 28.4 °F 87% 30.11 in 10.0 mi Calm Calm - N/A   Clear
8:15 PM 32.0 °F - 28.4 °F 87% 30.11 in 10.0 mi Calm Calm - N/A   Clear
8:35 PM 32.0 °F - 28.4 °F 87% 30.11 in 10.0 mi Calm Calm - N/A   Clear
8:55 PM 32.0 °F - 28.4 °F 87% 30.11 in 10.0 mi Calm Calm - N/A   Clear
9:15 PM 32.0 °F 28.7 °F 28.4 °F 87% 30.11 in 10.0 mi East 3.5 mph - N/A   Clear
9:35 PM 32.0 °F 28.7 °F 30.2 °F 93% 30.11 in 10.0 mi East 3.5 mph - N/A   Clear
9:55 PM 32.0 °F - 28.4 °F 87% 30.12 in 10.0 mi North - - N/A   Clear
10:15 PM 32.0 °F 28.7 °F 28.4 °F 87% 30.12 in 10.0 mi NE 3.5 mph - N/A   Clear
10:35 PM 30.2 °F - 28.4 °F 93% 30.12 in 10.0 mi Calm Calm - N/A   Clear
10:55 PM 32.0 °F 26.4 °F 28.4 °F 87% 30.12 in 10.0 mi East 5.8 mph - N/A   Clear
11:15 PM 32.0 °F 28.7 °F 26.6 °F 80% 30.12 in 10.0 mi East 3.5 mph - N/A   Clear
11:35 PM 32.0 °F 28.7 °F 26.6 °F 80% 30.12 in 10.0 mi East 3.5 mph - N/A   Clear
11:55 PM 32.0 °F 26.4 °F 24.8 °F 75% 30.12 in 10.0 mi East 5.8 mph - N/A   Clear